Simultaneous Nadir Overpasses (SNOs) Predictions

Prediction of SNOs between GOES-15 and METOP-A Satellite Orbit:

Table of predicted SNOs for the next 14.0 days since TLE Epoch: 1/28/2012
Index Date Time (GOES-15) GOES-15 Lat,Lon METOP-A Lat,Lon Distance(km) Time Diff (sec)
1 01/29/2012 06:20:28 0.02,-134.68 0.37,-133.07 183.11 80
2 01/30/2012 18:42:01 -0.02,-134.73 0.61,-137.64 331.54 80
3 01/31/2012 18:18:43 -0.02,-134.77 -0.50,-132.65 241.92 80
4 02/02/2012 06:40:25 0.01,-134.85 -0.51,-137.25 273.34 80
5 02/03/2012 06:17:07 0.00,-134.89 0.60,-132.26 299.74 80
6 02/04/2012 18:38:39 -0.00,-134.92 0.43,-136.82 216.13 80
7 02/05/2012 18:15:20 -0.00,-134.96 -0.69,-131.82 356.59 80
8 02/07/2012 06:37:03 -0.00,-135.03 -0.31,-136.43 159.80 80
9 02/08/2012 06:13:44 -0.00,-135.06 0.82,-131.44 412.52 80
10 02/09/2012 18:35:16 0.00,-135.08 0.21,-136.00 104.42 80
11 02/10/2012 18:11:58 -0.00,-135.11 -0.92,-131.01 467.61 80




NCC Satellite Simultaneous Nadir Overpasses (SNOs) Prediction Service
